Find Local Weather

World > North America > United States > California

Davis, California Regional Weather

Lat: 38.55N, Lon: 121.74W
Wx Zone: CAZ017
Feedback
Expires:201805260800;;544823
ASUS46 KSTO 260809
RWRCA 

NORTHERN AND CENTRAL CA REGIONAL WEATHER ROUNDUP
NATIONAL WEATHER SERVICE SACRAMENTO CA 
1200 AM PDT SAT MAY 26 2018

NOTE: FAIR INDICATES FEW OR NO CLOUDS BELOW 12,000 FEET WITH NO
SIGNIFICANT WEATHER AND/OR OBSTRUCTIONS TO VISIBILITY.


CAZ016>018-260800-
SOUTHERN SACRAMENTO VALLEY
  
CITY           SKY/WX    TMP DP  RH WIND       PRES   REMARKS
AUBURN         PTCLDY    52  48  87 E5        30.08F                  
BEALE AFB      CLOUDY    57  52  82 E6        30.05F                  
LINCOLN        FAIR      50  48  93 CALM      30.06S                  
MARYSVILLE     CLOUDY    58  52  80 E6        30.07F                  
SAC INTL ARPT  MOCLDY    56  51  84 S6        30.06F                  
MATHER AIRPORT NOT AVBL                                               
DOWNTOWN SAC   N/A       56  MM  MM MISG
SAC EXEC ARPT  PTCLDY    54  52  93 SW5       30.06F                  
VACAVILLE      CLOUDY    58  54  86 SW7       30.07F                  
$$

SKY/WX - Weather  TMP - Temperature  DP - Dewpoint  RH - Relative Humidity
WIND - Wind Direction/Speed PRES - Barometric Pressure